Selinsgrove, PA

8:13 AM EST on February 10, 2016 (GMT -0500)
Penn Valley

Weather History for KSEG - October, 2012

Change the Weather History Date:

Thursday, October 18, 2012

  Actual Average (KIPT) Record (KIPT)
Temperature  
Mean Temperature 52 °F 51 °F  
Max Temperature 68 °F 61 °F 82 °F (1964)
Min Temperature 39 °F 41 °F 24 °F (1939)
Degree Days  
Heating Degree Days 12 14  
Month to date heating degree days 203  
Since 1 July heating degree days 331  
Cooling Degree Days 0 0  
Month to date cooling degree days 1  
Year to date cooling degree days 698  
Growing Degree Days 2 (Base 50)    
Moisture  
Dew Point 47 °F    
Average Humidity 80    
Maximum Humidity 100    
Minimum Humidity 48    
Precipitation  
Precipitation 0.30 in 0.10 in 1.62 in (1990)
Month to date precipitation 2.06  
Year to date precipitation 33.25  
Snow  
Snow 0.00 in 0.00 in 0.30 in (1972)
Month to date snowfall 0.0  
Since 1 July snowfall 0.0  
Since 1 September snowfall 0.0  
Snow Depth -    
Sea Level Pressure  
Sea Level Pressure 29.90 in    
Wind  
Wind Speed 4 mph (SSE)    
Max Wind Speed 17 mph    
Max Gust Speed 24 mph    
Visibility 6 miles    
Events Rain , Thunderstorm    
T = Trace of Precipitation, MM = Missing Value Source: NWS Daily Summary

Daily Weather History Graph

Daily Weather History Graph

Search for Another Location

Airport or City:

Trip Planner

Search our weather history database for the weather conditions in past years. The results will help you decide how hot, cold, wet, or windy it might be!

Date:

Astronomy

Oct. 18, 2012 Rise Set
Actual Time 7:22 AM EDT 6:21 PM EDT
Civil Twilight 6:54 AM EDT 6:49 PM EDT
Nautical Twilight 6:22 AM EDT 7:21 PM EDT
Astronomical Twilight 5:51 AM EDT 7:53 PM EDT
Moon 11:03 AM EDT (10/18) 8:52 PM EDT (10/18)
Length of Visible Light 11h 54m
Length of Day
10h 59m
Waxing Crescent, 14% of the Moon is Illuminated
Oct 18
Waxing Crescent
Oct 21
First Quarter
Oct 29
Full
Nov 6
Last Quarter
Nov 13
New

Hourly Weather History & Observations

Time (EDT) Temp. Windchill Dew Point Humidity Pressure Visibility Wind Dir Wind Speed Gust Speed Precip Events Conditions
12:53 AM 41.0 °F - 39.9 °F 96% 29.94 in 5.0 mi Calm Calm - N/A   Clear
1:53 AM 42.1 °F - 39.9 °F 92% 29.93 in 5.0 mi Calm Calm - N/A   Clear
2:53 AM 39.9 °F - 39.0 °F 97% 29.93 in 4.0 mi Calm Calm - N/A   Clear
3:53 AM 39.9 °F - 39.0 °F 97% 29.93 in 3.0 mi Calm Calm - 0.01 in   Partly Cloudy
4:05 AM 41.0 °F - 39.2 °F 93% 29.92 in 4.0 mi Calm Calm - N/A   Mostly Cloudy
4:53 AM 43.0 °F - 42.1 °F 97% 29.92 in 4.0 mi Calm Calm - N/A   Overcast
5:53 AM 46.0 °F - 44.1 °F 93% 29.93 in 4.0 mi Calm Calm - N/A   Overcast
6:53 AM 44.1 °F - 43.0 °F 96% 29.93 in 4.0 mi Calm Calm - N/A   Scattered Clouds
7:33 AM 42.8 °F 41.1 °F 42.8 °F 100% 29.93 in 2.0 mi NNW 3.5 mph - N/A   Partly Cloudy
7:53 AM 44.1 °F - 43.0 °F 96% 29.93 in 2.0 mi Calm Calm - N/A   Clear
8:20 AM 44.6 °F - 44.6 °F 100% 29.93 in 3.0 mi Calm Calm - N/A   Clear
8:53 AM 53.1 °F - 50.0 °F 89% 29.94 in 4.0 mi South 5.8 mph - N/A   Clear
9:35 AM 55.4 °F - 48.2 °F 77% 29.95 in 8.0 mi South 10.4 mph - N/A   Mostly Cloudy
9:53 AM 57.0 °F - 50.0 °F 77% 29.96 in 9.0 mi South 5.8 mph - N/A   Mostly Cloudy
10:39 AM 59.0 °F - 48.2 °F 67% 29.94 in 10.0 mi South 10.4 mph 21.9 mph N/A   Scattered Clouds
10:53 AM 60.1 °F - 48.9 °F 67% 29.92 in 10.0 mi South 12.7 mph 20.7 mph N/A   Clear
11:53 AM 61.0 °F - 46.0 °F 58% 29.94 in 10.0 mi South 10.4 mph 17.3 mph N/A   Clear
12:53 PM 63.0 °F - 46.0 °F 54% 29.89 in 10.0 mi SSE 11.5 mph 21.9 mph N/A   Clear
1:53 PM 64.9 °F - 46.0 °F 50% 29.87 in 10.0 mi SSE 15.0 mph 23.0 mph N/A   Scattered Clouds
2:53 PM 66.0 °F - 48.0 °F 52% 29.86 in 10.0 mi South 11.5 mph 19.6 mph N/A   Mostly Cloudy
3:53 PM 66.9 °F - 46.9 °F 49% 29.87 in 10.0 mi SSE 17.3 mph 24.2 mph N/A   Partly Cloudy
4:53 PM 66.0 °F - 46.0 °F 48% 29.86 in 10.0 mi South 9.2 mph 17.3 mph N/A   Overcast
5:53 PM 64.9 °F - 48.0 °F 54% 29.85 in 10.0 mi SSE 10.4 mph - N/A   Overcast
7:53 PM 63.0 °F - 50.0 °F 63% 29.88 in 10.0 mi SE 9.2 mph 17.3 mph N/A   Overcast
8:53 PM 63.0 °F - 48.9 °F 60% 29.86 in 10.0 mi SSE 6.9 mph 16.1 mph N/A   Mostly Cloudy
9:53 PM 59.0 °F - 53.1 °F 81% 29.86 in 10.0 mi SSE 12.7 mph 24.2 mph 0.06 in Rain Light Rain
10:53 PM 57.9 °F - 54.0 °F 87% 29.84 in 10.0 mi Calm Calm - 0.03 in   Overcast
11:03 PM 57.2 °F - 53.6 °F 88% 29.84 in 10.0 mi NW 3.5 mph - 0.00 in Rain , Thunderstorm Light Rain
11:41 PM 57.2 °F - 55.4 °F 94% 29.86 in 2.5 mi South 3.5 mph - 0.11 in Rain Heavy Rain
11:49 PM 57.2 °F - 55.4 °F 94% 29.87 in 1.8 mi Variable 4.6 mph - 0.17 in Rain Heavy Rain
11:53 PM 57.0 °F - 55.9 °F 96% 29.85 in 1.8 mi Calm Calm - 0.20 in Rain Heavy Rain
11:59 PM 57.2 °F - 55.4 °F 94% 29.84 in 2.5 mi East 4.6 mph - 0.03 in Rain Heavy Rain